Location: Charlottetown
(46.2330°N, 63.1330°W)
Time: 00:32:47
(UTC-03:00)

Daily predictions for brighter satellites

Satellite Brightness Start Highest point End
(mag) Time Altitude Azimuth Time Altitude Azimuth Time Altitude Azimuth
CZ-4C R/B 2.1 00:03:36 30° SSW 00:06:24 75° SE 00:12:28 10° NE
Cosmos 1980 Rocket 3.9 00:04:43 10° N 00:09:20 25° NE 00:13:48 11° ESE
Okean 3 Rocket 4.1 00:08:05 32° SW 00:09:51 53° WNW 00:14:13 10° N
Meteor 1-16 Rocket 4.3 00:05:01 10° NNW 00:10:39 73° W 00:13:00 37° S
Cosmos 1627 Rocket 4.5 00:08:12 31° SSW 00:11:17 80° W 00:17:28 10° N
Cosmos 2228 Rocket 3.4 00:07:36 10° N 00:11:56 55° ENE 00:12:53 45° ESE
Meteor 2-1 Rocket 4.3 00:06:04 10° NNW 00:12:00 83° W 00:14:19 39° S
Cosmos 1486 Rocket 4.1 00:11:12 43° SSE 00:12:33 57° ESE 00:17:40 10° NNE
Cosmos 1763 Rocket 3.8 00:08:14 10° NNW 00:13:30 58° ENE 00:15:32 35° SE
Cosmos 2278 3.6 00:11:49 10° NNW 00:17:31 81° WSW 00:19:32 42° SSE
Cosmos 1470 4.3 00:15:05 10° NNW 00:18:22 26° W 00:19:20 24° WSW
Cosmos 1408 Rocket 3.5 00:21:14 52° SSW 00:22:18 85° W 00:26:48 10° N
Cosmos 405 Rocket 2.5 00:27:35 75° SE 00:27:45 78° E 00:31:31 10° NNE
Cosmos 1697 Rocket 3.4 00:22:55 10° NNW 00:28:26 48° ENE 00:31:20 26° ESE
Cosmos 1151 Rocket 4.3 00:25:42 10° NNE 00:29:28 29° ENE 00:30:28 26° E
CENTAUR R/B 3.5 00:29:35 26° SE 00:30:27 27° ESE 00:35:55 10° ENE
ALOS 2 2.5 00:32:11 56° SSE 00:33:03 79° ENE 00:37:28 10° N
Cosmos 1818 3.9 00:27:55 10° NW 00:33:12 50° WSW 00:34:29 41° SSW
Cosmos 1689 Rocket 2.6 00:34:48 62° NE 00:34:48 62° NE 00:37:46 10° N
Cosmos 2082 Rocket 2.5 00:34:49 41° SSE 00:36:07 49° ESE 00:41:35 10° NE
Cosmos 1833 Rocket 3.3 00:35:46 36° SE 00:36:49 39° ESE 00:42:00 10° NE
CZ-4B R/B 1.5 00:37:33 78° ESE 00:37:42 81° ENE 00:41:26 10° N
ISS -1.7 00:35:35 10° WNW 00:38:37 35° N 00:41:01 14° ENE
H-2A R/B 2.1 00:37:32 10° NNE 00:41:24 80° E 00:41:37 76° SSE
Landsat 5 3.3 00:41:45 67° SE 00:42:13 79° ENE 00:46:21 10° N
Cosmos 1656 3.7 00:37:49 10° NNW 00:43:35 78° ENE 00:45:42 40° SE
Cosmos 1553 Rocket 4.2 00:39:01 10° NNW 00:45:20 67° W 00:47:54 37° SSW
Cosmos 1441 Rocket 4.4 00:46:53 31° E 00:46:54 31° E 00:50:24 10° NNE
NOSS 3-2 (C) 3.7 00:43:08 20° SW 00:47:42 73° NW 00:54:32 10° NE
Meteor 2-2 Rocket 4.4 00:43:29 10° N 00:49:13 68° ENE 00:51:20 39° SSE
Cosmos 1743 Rocket 3.5 00:51:30 61° SSW 00:52:15 86° W 00:56:46 10° N
Cosmos 724 4.2 00:54:47 45° S 00:56:32 68° ESE 01:02:24 10° NE
Cosmos 841 Rocket 3.5 00:51:18 10° NNW 00:56:33 70° WSW 00:57:52 50° S
Cosmos 1378 3.8 00:56:29 42° W 00:56:55 44° WNW 01:00:35 10° N
Lacrosse 5 rocket 2.5 00:54:52 10° NW 00:58:56 44° NNE 01:02:23 15° E
CZ-4C R/B 4.2 00:59:32 29° WNW 00:59:32 29° WNW 01:01:56 10° NNW
Cosmos 2221 4.3 00:56:48 10° NW 00:59:56 20° W 01:00:54 19° WSW
CZ-2C R/B 3.4 00:54:55 10° NNE 01:00:06 40° E 01:01:31 34° SE
Cosmos 1437 Rocket 3.2 00:57:11 10° N 01:00:58 48° ENE 01:01:20 46° E
Cosmos 1354 Rocket 3.9 01:01:08 49° S 01:02:37 82° ESE 01:07:56 10° NNE
Cosmos 1674 3.3 01:03:45 43° E 01:03:45 43° E 01:07:17 10° NNE
Cosmos 1503 Rocket 3.9 01:05:06 49° SSW 01:06:37 85° ESE 01:11:57 10° NNE
Cosmos 1500 Rocket 3.4 01:07:52 66° SSW 01:08:27 85° W 01:12:49 10° N
Cosmos 1328 Rocket 4.0 01:05:12 10° NNW 01:09:26 48° W 01:10:01 45° WSW
Meteor 2-20 4.4 01:07:55 41° SSW 01:10:15 83° W 01:16:29 10° N
Cosmos 1867 3.9 01:08:44 28° WSW 01:11:36 64° NW 01:17:05 10° NNE
Cosmos 2266 Rocket 4.0 01:09:11 40° SSW 01:11:44 85° W 01:18:11 10° N
Cosmos 2315 Rocket 4.0 01:08:42 10° N 01:15:04 81° E 01:17:32 40° SSE
SL-16 R/B 3.8 01:11:43 10° N 01:16:45 31° NE 01:21:45 10° ESE
In-Cosmos 22 4.3 01:15:25 41° SSW 01:17:22 71° WNW 01:23:06 10° N
MOS 1-B Rocket 4.4 01:17:00 32° SSE 01:20:46 78° ENE 01:27:10 10° NNW
Lacrosse 5 1.8 01:18:00 10° NW 01:23:00 60° SW 01:23:43 54° S
Cosmos 783 Rocket 4.5 01:19:19 10° NNW 01:24:38 86° ENE 01:26:21 45° SSE
Cosmos 2322 Rocket 3.4 01:21:06 10° NNW 01:26:19 37° NE 01:31:00 12° ESE
Cosmos 1515 Rocket 4.2 01:22:18 10° NNW 01:26:30 41° W 01:27:06 39° WSW
Cosmos 2058 3.6 01:29:19 39° ESE 01:29:51 42° E 01:33:47 10° NNE
Helios 1A Rocket 3.4 01:28:31 10° N 01:32:29 51° WNW 01:33:12 45° WSW
Cosmos 2344 3.8 01:35:51 24° SW 01:41:02 80° NW 01:50:17 10° NE
Cosmos 540 Rocket 3.5 01:42:37 10° NNW 01:47:46 66° WSW 01:49:03 48° SSW
CZ-2C R/B 3.2 01:49:57 40° SSE 01:52:07 88° WSW 01:57:58 10° NNW
BREEZE-M TANK 3.3 01:41:14 10° WSW 01:52:15 53° SSE 01:55:31 10° E
SL-14 R/B 3.9 01:52:06 41° ESE 01:52:33 43° E 01:56:13 10° NNE
Cosmos 1980 Rocket 2.2 01:48:13 10° NNW 01:53:48 64° WSW 01:55:32 43° S
Cosmos 2360 Rocket 4.2 01:49:27 10° N 01:54:08 26° NE 01:58:46 10° ESE
BREEZE-M DEB (TANK) 3.5 01:44:11 10° W 01:54:30 63° N 01:57:43 10° ENE
CZ-4C R/B 4.1 01:50:38 10° W 01:55:34 29° NNW 02:01:05 10° NNE
Cosmos 1271 Rocket 4.4 01:54:07 10° NNE 01:57:22 27° ENE 01:58:57 20° ESE
BREEZE-M DEB (TANK) 2.8 01:54:55 10° WNW 01:57:26 84° NNE 02:04:16 10° ESE
Cosmos 2151 3.2 01:57:24 49° WSW 01:58:08 56° WNW 02:02:20 10° N
ERS-2 4.5 01:56:41 10° ENE 01:58:48 15° E 01:59:45 13° ESE
Cosmos 1805 Rocket 3.5 01:59:14 56° S 02:00:09 89° W 02:04:38 10° N
Cosmos 1328 3.9 02:01:00 56° WSW 02:01:30 62° WNW 02:05:27 10° N
SL-08 R/B 4.5 01:58:59 37° S 02:01:33 74° E 02:07:42 10° NNE
Cosmos 1703 4.4 02:02:43 30° ESE 02:03:35 34° E 02:07:12 10° NNE
Cosmos 332 Rocket 3.8 01:59:09 10° NNW 02:03:54 63° WSW 02:04:56 49° SSW
Cosmos 1633 Rocket 3.2 02:04:28 47° SSE 02:05:33 64° E 02:09:57 10° NNE
Cosmos 1151 Rocket 4.3 02:03:22 10° NNW 02:06:56 26° W 02:07:19 26° W
Aureole 1 Rocket 4.2 02:02:44 10° NW 02:07:21 41° WSW 02:08:45 35° SW
Cosmos 1300 2.7 02:07:57 10° NNW 02:11:46 64° W 02:12:04 61° SW
Cosmos 1697 Rocket 3.7 02:07:20 10° NW 02:12:09 29° WSW 02:13:03 28° WSW
Cosmos 1707 Rocket 3.6 02:08:01 10° NNW 02:12:18 59° W 02:13:04 50° SW
Cosmos 1437 2.7 02:12:34 77° WNW 02:12:34 77° WNW 02:15:53 10° N
ISS -1.7 02:12:00 10° WNW 02:13:33 25° WNW 02:13:33 25° WNW
Cosmos 405 4.3 02:14:05 10° NNW 02:17:00 28° W 02:17:00 28° W
Meteor 1-11 4.2 02:14:59 38° SSW 02:17:22 87° W 02:23:14 10° N
Cosmos 1666 Rocket 3.4 02:16:53 52° SSW 02:17:53 79° W 02:22:14 10° N
Cosmos 2242 Rocket 3.5 02:14:08 10° N 02:18:34 86° W 02:19:46 48° S
Cosmos 1726 2.0 02:15:46 10° NNW 02:19:28 70° W 02:19:46 65° SW
ATLAS 5 CENTAUR R/B 3.1 02:18:56 24° SE 02:20:16 28° ESE 02:24:39 10° ENE
Cosmos 2082 Rocket 3.6 02:16:39 15° WSW 02:20:26 31° NW 02:25:28 10° N
CENTAUR R/B 2.8 02:16:44 26° SW 02:20:28 68° NW 02:27:32 10° NE
Cosmos 1833 Rocket 3.8 02:17:26 20° WSW 02:20:45 37° NW 02:25:59 10° NNE
Cosmos 1470 Rocket 4.0 02:27:17 35° SSE 02:28:51 56° E 02:33:10 10° NNE
Cosmos 1933 Rocket 3.9 02:31:25 36° SSE 02:33:00 60° E 02:37:23 10° NNE
SL-08 R/B 4.2 02:30:02 16° SE 02:33:41 49° ENE 02:38:27 10° N
ASTEX 1 3.8 02:30:04 10° N 02:34:52 50° WNW 02:36:38 34° SW
Lacrosse 5 rocket 2.0 02:34:11 10° WNW 02:38:02 39° SW 02:38:02 39° SW
Cosmos 1455 2.5 02:34:47 10° N 02:38:33 59° E 02:40:00 33° SE
CZ-2C R/B 3.8 02:35:23 10° N 02:40:16 33° WNW 02:43:03 21° WSW
Sich 1 3.4 02:39:15 38° SW 02:40:34 52° WNW 02:44:57 10° N
Cosmos 968 Rocket 3.5 02:39:55 35° SW 02:42:04 71° WNW 02:47:15 10° NNE
Cosmos 1626 2.7 02:43:37 34° SSE 02:44:52 50° E 02:48:32 10° NNE
Cosmos 2112 Rocket 4.4 02:39:56 10° NNW 02:45:06 63° ENE 02:49:54 12° SSE
Abrixas 3.2 02:43:01 18° WNW 02:45:09 54° N 02:48:11 10° E
Cosmos 1386 Rocket 4.4 02:43:24 30° SSW 02:46:38 81° W 02:52:46 10° N
Landsat 4 3.8 02:49:51 46° SW 02:50:32 54° WSW 02:54:14 10° NNW
Cosmos 371 Rocket 4.1 02:48:55 10° NW 02:53:15 33° WSW 02:54:15 30° SW
COSMOS 2428 4.3 02:48:18 10° NNW 02:53:30 35° NE 02:58:39 10° ESE
Cosmos 304 Rocket 3.8 02:53:16 10° NNW 02:58:09 83° ENE 03:01:54 17° SSE
SL-16 R/B 2.5 02:55:38 10° NW 03:01:05 49° WSW 03:03:55 27° S
GENESIS II 4.2 02:57:07 10° NW 03:01:16 80° SW 03:04:21 17° SSE
ATLAS CENTAUR R/B 2.5 02:58:15 10° NNW 03:02:55 50° NE 03:07:13 10° ESE
Nadezhda 1 Rocket 4.5 03:00:03 10° NNW 03:05:47 42° W 03:08:46 25° SW
Cosmos 1346 4.0 03:05:06 30° SE 03:06:07 41° E 03:09:02 10° NNE
Cosmos 1862 Rocket 3.7 03:01:45 10° NNW 03:06:10 60° W 03:08:06 31° SSW
Cosmos 2322 Rocket 2.7 03:05:12 10° NW 03:10:22 38° WSW 03:12:46 26° SSW
USA 161 2.7 03:12:07 21° ESE 03:13:12 32° ENE 03:15:24 10° N
Cosmos 2219 Rocket 4.4 03:09:23 10° N 03:14:07 27° NE 03:18:49 10° ESE
CZ-2D R/B 4.0 03:10:05 10° NE 03:14:19 24° E 03:18:33 10° SE
Cosmos 1709 Rocket 4.0 03:11:15 24° SSW 03:15:20 79° W 03:21:35 10° N
Meteor 1-4 Rocket 3.6 03:15:25 10° NNW 03:18:49 32° W 03:19:43 28° WSW
Okean O Rocket 4.5 03:20:34 10° ENE 03:21:36 11° E 03:22:39 10° E
SL-16 R/B 3.4 03:16:55 10° SE 03:22:57 52° ENE 03:29:01 10° N
Cosmos 923 Rocket 4.5 03:18:42 10° NW 03:23:38 42° WSW 03:26:25 23° SSW
AQUA 3.8 03:25:35 10° N 03:30:21 77° WNW 03:33:26 22° SSW
Spot 4 Rocket 4.3 03:25:57 10° NNE 03:31:06 64° ESE 03:35:13 16° S
Cosmos 1680 Rocket 3.8 03:26:18 10° NNW 03:31:17 46° WSW 03:34:46 19° S
NPP 3.7 03:26:03 10° N 03:31:25 67° WNW 03:35:02 21° SSW
ERS-2 2.7 03:29:17 10° N 03:32:51 44° WNW 03:34:37 25° SW
Cosmos 1271 Rocket 4.1 03:30:20 10° NW 03:33:19 22° W 03:34:09 21° WSW
Cosmos 1869 Rocket 3.8 03:31:23 18° S 03:34:38 70° E 03:39:04 10° NNE
SL-23 DEB 3.5 03:33:02 10° WNW 03:36:09 78° NNE 03:39:51 10° ESE
Cosmos 2292 Rocket 3.3 03:34:34 28° SSW 03:36:11 59° WNW 03:40:19 10° N
USA 215 3.4 03:30:46 10° NE 03:37:16 62° SE 03:42:14 18° SW
Cosmos 1869 4.2 03:34:41 10° NNW 03:38:17 32° W 03:39:56 23° SW
Cosmos 2360 Rocket 2.2 03:32:59 10° NNW 03:38:33 62° WSW 03:44:05 10° S
Cosmos 2221 Rocket 3.6 03:37:59 10° NNW 03:42:29 66° W 03:46:09 15° S
CBERS-1 4.2 03:39:04 10° N 03:44:07 61° WNW 03:47:48 18° SSW
Cosmos 2227 Rocket 4.5 03:43:38 10° SE 03:47:13 17° E 03:50:48 10° ENE
ARIANE 5 R/B 2.8 03:45:15 10° NNE 03:50:20 66° ESE 03:55:08 11° S
IRS-1C 4.2 03:45:06 10° N 03:50:24 67° WNW 03:54:37 16° SSW
Resurs 1-4 Rocket 2.8 03:48:39 10° NNE 03:53:53 52° E 03:59:04 10° S
EO 1 Del DPAF 3.2 03:54:52 10° S 03:58:47 78° WSW 04:02:43 10° NNW
Cosmos 2333 4.3 03:54:34 10° NNW 04:00:15 81° ENE 04:05:58 10° SSE
IRS-1D 3.8 03:55:06 10° NNE 04:00:28 74° ESE 04:05:43 10° S
Cosmos 1703 Rocket 4.2 03:57:49 10° NNW 04:01:51 38° W 04:05:04 15° SSW
Cosmos 1898 Rocket 3.5 03:57:37 14° SSW 04:02:07 82° ESE 04:07:20 10° NNE
Cosmos 2322 4.2 03:58:09 10° NW 04:03:28 40° WSW 04:08:46 10° S
Cosmos 1733 Rocket 4.3 03:59:48 10° SSE 04:03:51 39° E 04:07:57 10° NNE
Cosmos 1937 Rocket 3.9 03:58:49 11° S 04:03:56 62° ESE 04:09:10 10° NNE
Cosmos 2219 3.3 03:59:21 14° SSW 04:04:21 85° ESE 04:10:09 10° NNE
ATLAS 5 CENTAUR R/B 2.5 04:00:28 14° WSW 04:04:39 51° NW 04:09:55 10° NNE
CENTAUR R/B 4.5 04:07:06 10° WNW 04:12:33 26° NNW 04:18:31 10° NNE
SL-08 ROCKET BODY 4.5 04:06:46 10° SSW 04:12:50 78° W 04:19:03 10° N
Okean 1-7 3.4 04:08:57 10° NNW 04:13:10 47° W 04:17:19 10° SSW
Cosmos 1455 4.4 04:12:55 10° WNW 04:13:44 11° W 04:14:32 10° W
Meteor 1-26 Rocket 4.4 04:13:21 10° NNW 04:18:42 51° W 04:24:01 10° S
Cosmos 2297 Rocket 4.3 04:15:18 10° SSE 04:19:33 22° E 04:23:47 10° NE
ADEOS 4.2 04:14:58 10° N 04:19:53 42° WNW 04:24:36 11° SW
Cosmos 1626 4.4 04:18:48 10° W 04:20:38 13° WNW 04:22:29 10° NW
Abrixas 2.4 04:18:16 10° WNW 04:21:21 67° SSW 04:24:24 10° ESE
Coronas F rocket 3.7 04:21:16 10° SE 04:23:28 22° E 04:25:42 10° NE
Cosmos 2341 Rocket 4.5 04:18:43 10° S 04:24:57 66° E 04:31:17 10° NNE
Cosmos 389 Rocket 2.6 04:22:29 10° NNW 04:26:11 68° W 04:29:50 10° S
Nadezhda 3 Rocket 4.0 04:20:20 10° N 04:26:32 87° W 04:32:41 10° S
Cosmos 1980 4.3 04:21:09 10° NNW 04:26:48 64° ENE 04:32:23 10° SE
Cosmos 1782 3.7 04:23:00 10° N 04:26:58 53° ENE 04:30:52 10° SSE
Cosmos 2333 Rocket 2.7 04:21:41 10° NNW 04:27:23 67° ENE 04:33:05 10° SE
Cosmos 2150 Rocket 4.3 04:23:41 11° SW 04:28:48 60° WNW 04:34:11 10° NNE
SME Rocket 3.4 04:24:05 10° SSE 04:29:54 83° WSW 04:34:05 10° NNW
ASTRO F (AKARI) 4.2 04:27:09 10° SSE 04:30:21 90° W 04:33:32 10° NNW
Cosmos 2154 Rocket 4.1 04:29:16 10° S 04:35:37 86° W 04:42:02 10° N
BREEZE-M DEB (TANK) 3.2 04:28:29 10° W 04:36:05 71° SSW 04:39:10 10° ESE
Sich 1 Rocket 4.3 04:33:19 10° S 04:37:36 55° E 04:41:54 10° NNE
COSMOS 2428 3.1 04:32:31 10° NW 04:37:51 42° WSW 04:43:08 10° S
USA 129 2.8 04:38:34 13° SW 04:39:12 16° W 04:40:16 10° NW
Cosmos 1892 2.7 04:37:34 10° S 04:41:27 82° W 04:45:20 10° N
ATLAS CENTAUR R/B 2.7 04:38:02 10° WNW 04:41:42 23° WSW 04:45:08 10° SSW
CZ-4B R/B 4.2 04:39:28 10° NNE 04:43:22 41° E 04:47:26 10° S
MOZ.5/SAFIR/RUBIN 5/SL-8 4.3 04:39:25 10° SSE 04:44:04 67° ENE 04:48:48 10° N
Cosmos 1674 Rocket 3.5 04:40:04 10° N 04:44:25 80° W 04:48:45 10° S
Cosmos 2237 Rocket 2.4 04:41:51 10° NNW 04:47:35 83° ENE 04:53:17 10° SSE
USA 229 DEB 4.0 04:41:28 10° SW 04:48:22 65° NW 04:55:22 10° NE
USA 229 4.0 04:41:34 10° SW 04:48:29 65° NW 04:55:29 10° NE
Cosmos 1340 Rocket 3.1 04:45:03 10° S 04:49:04 73° E 04:53:03 10° NNE
CZ-2C R/B 3.7 04:45:57 10° S 04:50:27 67° WSW 04:55:04 10° NNW
